Location: Unspecified
(51.0950°N, 12.9690°E)
Time: 22:46:58
(UTC+00:00)

USA 229 - Pass Details

Date: 28 October 2021
Orbit: 946 x 1266 km, 63.4° (Epoch: 25 November)

Event Time Altitude Azimuth Distance (km) Brightness Sun altitude
Rises 18:08:13 0° 236° (SW) 3,664 7.3 -22.3°
Reaches altitude 10° 18:10:45 10° 239° (WSW) 2,748 6.6 -22.7°
Maximum altitude 18:17:09 64° 321° (NW) 1,142 3.9 -23.7°
Enters shadow 18:21:45 22° 38° (NE) 2,160 5.0 -24.4°
